Regional Weather Roundup
Issued by NWS

Home | Current Version | Previous Version | Graphics & Text | Print | Product List | Glossary On
Versions: 1 2 3 4 5 6 7 8 9 10 11 12 13 14 15 16 17 18 19 20 21 22 23 24 25 26 27 28 29 30 31 32 33 34 35 36 37 38 39 40 41 42 43 44 45 46 47 48 49 50
507
ASUS43 KOAX 130902
RWRNE

WEATHER ROUNDUP FOR NEBRASKA
NATIONAL WEATHER SERVICE OMAHA NE
300 AM CST SAT FEB 13 2016

NOTES: SATELLITE DATA IS BEING USED TO AUGMENT CLOUD COVER ABOVE
       12000 FEET.
       "FAIR" INDICATES FEW OR NO CLOUDS BELOW 12,000 FEET WITH NO
       SIGNIFICANT WEATHER AND/OR OBSTRUCTIONS TO VISIBILITY.

  * THESE STATIONS DO NOT REPORT WEATHER SUCH AS RAIN...SNOW OR FOG.

NEZ001>004-019>022-054>056-131000-
NEBRASKA PANHANDLE

CITY           SKY/WX    TMP DP  RH WIND       PRES   REMARKS
SCOTTSBLUFF    CLOUDY    33  30  88 SE13      30.16F WCI  24
ALLIANCE       CLOUDY    30  29  96 S17       30.18F FOG     WCI  18
CHADRON        CLOUDY    34  29  82 S15       30.16F WCI  24
SIDNEY         CLOUDY    30  30 100 S13       30.20F FOG     WCI  20
$$

NEZ057>060-069>072-079>082-131000-
SOUTHWEST NEBRASKA

CITY           SKY/WX    TMP DP  RH WIND       PRES   REMARKS
NORTH PLATTE   CLOUDY    23  19  85 SE10      30.36F WCI  12
IMPERIAL       CLOUDY    28  27  96 S15       30.31F WCI  16
MCCOOK         CLOUDY    24  23  96 SE13      30.40F FOG     WCI  12
$$

NEZ005>010-023>029-035>040-094-131000-
NORTH CENTRAL NEBRASKA

CITY           SKY/WX    TMP DP  RH WIND       PRES   REMARKS
VALENTINE      CLOUDY    22  17  81 SE15      30.35F WCI   9
BROKEN BOW     CLOUDY    19  14  81 S14       30.41F WCI   6
ORD            CLOUDY    17  10  74 SE10      30.46F WCI   5
$$

NEZ041-046>049-061>064-073>077-083>087-131000-
SOUTH CENTRAL NEBRASKA

CITY           SKY/WX    TMP DP  RH WIND       PRES   REMARKS
GRAND ISLAND   CLOUDY    16   7  67 E12       30.52F WCI   3
HASTINGS       CLOUDY    17  10  74 SE10      30.49S WCI   5
KEARNEY *      CLOUDY    18  12  79 SE12      30.47F WCI   5
$$

NEZ011>018-030>034-042>045-131000-
NORTHEAST NEBRASKA

CITY           SKY/WX    TMP DP  RH WIND       PRES   REMARKS
NORFOLK        CLOUDY    11   2  67 E7        30.55R WCI   0
COLUMBUS *     CLOUDY    12  -2  52 E7        30.57S WCI   2
TEKAMAH        CLOUDY     7  -3  64 NE8       30.63S WCI  -6
$$

NEZ050>053-065>068-078-088>093-131000-
SOUTHEAST NEBRASKA

CITY           SKY/WX    TMP DP  RH WIND       PRES   REMARKS
LINCOLN        CLOUDY    14   4  64 NE7       30.61S WCI   4
OMAHA EPPLEY   CLOUDY    10  -3  55 NE5       30.64S WCI   2
FALLS CITY     CLOUDY    15   2  56 NE9       30.60F WCI   3
$$

NEZ044-045-051>053-067-131000-
OMAHA AREA

CITY           SKY/WX    TMP DP  RH WIND       PRES   REMARKS
OMAHA EPPLEY   CLOUDY    10  -3  55 NE5       30.64S WCI   2
OFFUTT AFB     CLOUDY    10  -2  58 NE8       30.62F WCI  -1
$$




USA.gov is the U.S. government's official web portal to all federal, state and local government web resources and services.